Volver al catálogo

SL-8 DEB

ActivoLEO
NORAD 21161·DEBRIS·🇷🇺 Russia

Lanzado Feb 12, 1991 desde Plesetsk Cosmodrome

Loading…

Próximos Pases (próximas 24 horas)

TLE

ActualizadoSource: Space-Track

Época: Sep 14, 2026, 14:04 UTC

1 21161U 91009Y   26257.58631359  .00000023  00000-0  34425-3 0  9998
2 21161  74.0715 125.8968 0131682 136.0310 237.7028 12.19453622581582

Sigue SL-8 DEB en tiempo real con AllMySat

Download on the App Store